This is the latest recevied weather packets stored in our database for station/object W4SKW. If no packets are shown the sender has not sent any weather packets the latest 10 day(s).
| Time | Temp. | Humidity | Pressure | Rain* | Wind** | Luminosity | Snow |
|---|---|---|---|---|---|---|---|
| 1777616009 | 13.89° C | 61% | 1014.8 hPa | 0 mm | - | 0 W/m² | - |
| 1777615705 | 13.89° C | 61% | 1014.8 hPa | 0 mm | - | 0 W/m² | - |
| 1777615403 | 13.89° C | 61% | 1015 hPa | 0 mm | - | 0 W/m² | - |
| 1777615102 | 13.89° C | 62% | 1015 hPa | 0 mm | - | 0 W/m² | - |
| 1777614797 | 13.89° C | 62% | 1014.9 hPa | 0 mm | - | 0 W/m² | - |
| 1777614494 | 13.89° C | 67% | 1014.8 hPa | 0 mm | - | 0 W/m² | - |
| 1777614189 | 13.89° C | 64% | 1014.9 hPa | 0 mm | - | 0 W/m² | - |
| 1777613884 | 13.89° C | 62% | 1015 hPa | 0 mm | - | 0 W/m² | - |
| 1777613582 | 14.44° C | 62% | 1015.1 hPa | 0 mm | - | 0 W/m² | - |
| 1777613279 | 13.89° C | 63% | 1015 hPa | 0 mm | - | 0 W/m² | - |
| 1777612975 | 13.89° C | 62% | 1014.9 hPa | 0 mm | - | 0 W/m² | - |
| 1777612671 | 14.44° C | 67% | 1014.8 hPa | 0 mm | - | 0 W/m² | - |
| 1777612367 | 13.89° C | 61% | 1015 hPa | 0 mm | - | 0 W/m² | - |
| 1777612063 | 13.89° C | 63% | 1015 hPa | 0 mm | - | 0 W/m² | - |
| 1777611758 | 14.44° C | 68% | 1014.8 hPa | 0 mm | - | 0 W/m² | - |
| 1777611455 | 13.89° C | 66% | 1015 hPa | 0 mm | - | 0 W/m² | - |
| 1777611152 | 14.44° C | 65% | 1014.7 hPa | 0 mm | - | 0 W/m² | - |
| 1777610852 | 14.44° C | 65% | 1014.7 hPa | 0 mm | - | 0 W/m² | - |
| 1777610548 | 14.44° C | 64% | 1014.7 hPa | 0 mm | - | 0 W/m² | - |
| 1777610242 | 14.44° C | 68% | 1014.8 hPa | 0 mm | - | 0 W/m² | - |
| 1777609940 | 14.44° C | 63% | 1015 hPa | 0 mm | - | 0 W/m² | - |
| 1777609625 | 13.89° C | 64% | 1015.1 hPa | 0 mm | - | 0 W/m² | - |
| 1777609322 | 13.89° C | 64% | 1015.1 hPa | 0 mm | - | 0 W/m² | - |
| 1777609020 | 13.89° C | 66% | 1015.3 hPa | 0 mm | - | 0 W/m² | - |
| 1777608716 | 13.89° C | 73% | 1015.2 hPa | 0 mm | - | 0 W/m² | - |
* Rain latest hour (hover to see other rain measurements)
** Current wind speed in m/s (hover to see current wind gust speed)